Location: Newark
(48.4472°N, 1.4892°E)
Time: 14:09:08
(UTC+00:00)

Transit 4A - Pass Details

Date: 20 January 2021
Orbit: 866 x 978 km, 66.8° (Epoch: 01 March)

Event Time Altitude Azimuth Distance (km) Brightness Sun altitude
Rises 20:33:51 0° 225° (SW) 3,665 11.3 -39.2°
Reaches altitude 10° 20:36:27 10° 228° (SW) 2,723 10.6 -39.6°
Enters shadow 20:38:19 20° 233° (SW) 2,073 9.9 -39.9°
